Bloomington, IN

4:46 AM EST on December 06, 2016 (GMT -0500)
Monroe County

Weather History for KBMG - April, 2013

Change the Weather History Date:

Tuesday, April 30, 2013

  Actual Average Record
Temperature  
Mean Temperature 66 °F 58 °F  
Max Temperature 82 °F 69 °F 87 °F (2007)
Min Temperature 49 °F 47 °F 33 °F (2008)
Degree Days  
Heating Degree Days 0 8  
Month to date heating degree days 362 357  
Since 1 July heating degree days 5188 5114  
Cooling Degree Days 1 0  
Month to date cooling degree days 12 16  
Year to date cooling degree days 12 19  
Growing Degree Days 14 (Base 50)    
Moisture  
Dew Point 53 °F    
Average Humidity 70    
Maximum Humidity 100    
Minimum Humidity 39    
Precipitation  
Precipitation 0.00 in 0.18 in 1.23 in (1998)
Month to date precipitation 5.15 4.70  
Year to date precipitation 15.40 14.65  
Sea Level Pressure  
Sea Level Pressure 29.96 in    
Wind  
Wind Speed 6 mph (SSE)    
Max Wind Speed 14 mph    
Max Gust Speed 18 mph    
Visibility 9 miles    
Events      
T = Trace of Precipitation, MM = Missing Value Source: NWS Daily Summary

Daily Weather History Graph

Daily Weather History Graph

Search for Another Location

Airport or City:

Trip Planner

Search our weather history database for the weather conditions in past years. The results will help you decide how hot, cold, wet, or windy it might be!

Date:

Astronomy

Apr. 30, 2013 Rise Set
Actual Time 6:49 AM EDT 8:38 PM EDT
Civil Twilight 6:20 AM EDT 9:07 PM EDT
Nautical Twilight 5:45 AM EDT 9:42 PM EDT
Astronomical Twilight 5:07 AM EDT 10:20 PM EDT
Moon 1:01 AM EDT (4/30) 11:17 AM EDT (4/30)
Length of Visible Light 14h 47m
Length of Day
13h 49m
Waning Gibbous, 70% of the Moon is Illuminated
Apr 30
Waning Gibbous
May 2
Last Quarter
May 9
New
May 18
First Quarter
May 25
Full

Hourly Weather History & Observations

Time (EDT) Temp. Heat Index Dew Point Humidity Pressure Visibility Wind Dir Wind Speed Gust Speed Precip Events Conditions
12:53 AM 55.9 °F - 52.0 °F 87% 29.92 in 10.0 mi SSE 5.8 mph - N/A   Clear
1:53 AM 54.0 °F - 51.1 °F 90% 29.93 in 10.0 mi SSE 4.6 mph - N/A   Clear
2:53 AM 54.0 °F - 51.1 °F 90% 29.93 in 10.0 mi SSE 4.6 mph - N/A   Clear
3:53 AM 52.0 °F - 51.1 °F 97% 29.92 in 9.0 mi SE 4.6 mph - N/A   Clear
4:53 AM 52.0 °F - 50.0 °F 93% 29.94 in 8.0 mi SSE 5.8 mph - N/A   Clear
5:53 AM 52.0 °F - 50.0 °F 93% 29.95 in 8.0 mi SE 5.8 mph - N/A   Clear
6:53 AM 48.9 °F - 48.0 °F 97% 29.96 in 6.0 mi SE 3.5 mph - N/A   Clear
7:53 AM 53.1 °F - 52.0 °F 96% 29.97 in 8.0 mi SSE 6.9 mph - N/A   Clear
8:53 AM 57.0 °F - 52.0 °F 83% 29.98 in 10.0 mi SSE 10.4 mph - N/A   Clear
9:53 AM 63.0 °F - 53.1 °F 70% 29.99 in 10.0 mi SSE 9.2 mph - N/A   Clear
10:53 AM 69.1 °F - 54.0 °F 58% 29.99 in 10.0 mi SE 6.9 mph - N/A   Clear
11:53 AM 73.0 °F - 54.0 °F 51% 29.98 in 10.0 mi SSW 10.4 mph - N/A   Clear
12:53 PM 75.9 °F - 55.0 °F 48% 29.98 in 10.0 mi South 9.2 mph - N/A   Clear
1:53 PM 78.1 °F - 55.0 °F 45% 29.96 in 10.0 mi SSW 8.1 mph - N/A   Clear
2:53 PM 80.1 °F 80.0 °F 54.0 °F 40% 29.94 in 10.0 mi South 4.6 mph - N/A   Clear
3:53 PM 80.1 °F 80.2 °F 55.9 °F 43% 29.94 in 10.0 mi SSE 9.2 mph - N/A   Clear
4:53 PM 80.1 °F 80.2 °F 55.9 °F 43% 29.93 in 10.0 mi SSE 6.9 mph - N/A   Clear
5:53 PM 80.1 °F 80.2 °F 55.9 °F 43% 29.94 in 10.0 mi SSE 8.1 mph 17.3 mph N/A   Clear
6:53 PM 79.0 °F - 55.0 °F 44% 29.96 in 10.0 mi SSE 9.2 mph - N/A   Clear
7:53 PM 75.9 °F - 54.0 °F 46% 29.96 in 10.0 mi SE 6.9 mph - N/A   Clear
8:53 PM 73.0 °F - 53.1 °F 49% 29.98 in 5.0 mi SE 4.6 mph - N/A   Haze
9:53 PM 69.1 °F - 52.0 °F 54% 29.99 in 10.0 mi SE 3.5 mph - N/A   Clear
10:53 PM 62.1 °F - 55.9 °F 80% 30.01 in 10.0 mi Calm Calm - N/A   Clear
11:53 PM 59.0 °F - 54.0 °F 83% 30.02 in 10.0 mi Calm Calm - N/A   Clear